Location: Krasnoyarskiy Pitomnik
(51.1333°N, 71.6167°E)
Time: 19:35:36
(UTC+00:00)

Tiros 1 - Visible Passes

Search period start: 17 May 2025 00:00
Search period end: 27 May 2025 00:00
Orbit: 620 x 651 km, 48.4° (Epoch: 16 May)

Date Brightness Start Highest point End Pass type
(mag) Time Alt. Az. Time Alt. Az. Time Alt. Az.
17 May 7.1 16:42:06 10° W 16:46:41 62° S 16:50:57 12° ESE visible
17 May 7.7 18:23:59 10° W 18:28:16 36° SSW 18:28:21 36° SSW visible
18 May 7.3 17:04:21 10° W 17:08:52 53° SSW 17:11:50 21° SE visible
18 May 8.5 18:46:30 10° W 18:49:13 22° SW 18:49:13 22° SW visible
19 May 7.2 15:44:49 10° W 15:49:22 63° S 15:54:00 10° ESE visible
19 May 7.6 17:26:39 10° W 17:31:00 40° SSW 17:32:45 28° SSE visible
19 May 9.3 19:09:35 10° WSW 19:10:09 12° WSW 19:10:09 12° WSW visible
20 May 7.3 16:07:02 10° W 16:11:34 56° S 16:16:08 10° ESE visible
20 May 8.2 17:49:05 10° W 17:53:00 27° SSW 17:53:41 26° SSW visible
21 May 7.6 16:29:20 10° W 16:33:43 44° SSW 16:37:15 15° SE visible
21 May 8.9 18:11:56 10° WSW 18:14:39 17° SW 18:14:39 17° SW visible
22 May 8.1 16:51:42 10° W 16:55:45 30° SSW 16:58:14 19° SSE visible
23 May 8.8 17:14:23 10° W 17:17:40 19° SW 17:19:16 16° S visible
24 May 8.1 15:54:19 10° W 15:58:29 34° SSW 16:02:40 10° SE visible
24 May 9.3 17:38:24 10° WSW 17:39:26 11° SW 17:40:20 10° SSW visible
25 May 8.7 16:16:54 10° W 16:20:26 22° SW 16:23:58 10° SSE visible
26 May 9.3 16:40:13 10° WSW 16:42:14 13° SW 16:44:15 10° SSW visible
